Wind_Speed
14 9 9 12 12 14 14 14 13 4 2 2 5 7 8 9 9 6 5 3 3 5 8 10 11 12 12 10 12 16 20 20 19 19 20 22 23 25 27 28 30 32 34 36 36 39 43 44 45 44 44 44 43 43 43 43 42 40 40 40 40 39 38 37 36 34 33 31 30 28 27 25 23 22 21 21 20 19 18 17 15 15 14 13 12 12
12 10 12 15 11 9 10 11 10 9 9 5 4 6 7 9 9 6 3 3 3 5 7 8 10 13 13 11 11 14 16 17 20 21 21 23 24 25 28 29 29 27 27 29 32 35 38 40 42 43 44 44 43 43 44 44 42 41 41 40 40 39 39 39 38 36 34 33 31 29 28 26 24 23 21 21 21 21 19 17 17 16 15 14 13 12
9 11 13 12 8 6 7 10 11 13 14 11 5 5 5 5 5 7 6 4 4 5 5 6 9 12 11 10 11 14 16 19 24 26 26 28 28 27 29 29 28 26 26 29 32 36 38 37 39 42 44 44 44 42 42 43 42 42 42 41 40 40 40 40 39 38 36 34 32 29 28 26 25 24 22 22 22 21 20 19 18 17 16 15 14 12
7 10 12 9 9 11 10 11 14 12 11 12 9 7 6 3 3 6 4 2 5 7 6 5 7 9 7 6 9 16 21 20 22 25 24 26 29 30 30 30 29 30 31 32 34 36 37 37 37 39 42 45 45 41 40 43 43 43 43 41 41 39 39 40 39 38 36 34 32 30 28 27 25 25 23 23 22 22 22 20 19 19 18 17 15 13
6 3 9 13 11 14 13 12 14 12 9 12 14 11 8 5 5 4 2 4 4 7 7 6 7 9 7 7 8 12 18 17 17 19 19 20 22 22 23 26 28 31 33 35 36 37 38 39 38 37 37 42 45 43 41 44 44 43 42 41 39 38 38 38 38 38 37 36 34 32 30 29 28 26 25 25 25 24 24 22 21 20 19 18 17 15
9 4 13 16 15 16 14 13 15 12 8 11 15 16 12 8 7 7 7 6 4 5 5 5 9 8 6 10 10 8 11 14 14 16 20 21 20 20 21 25 27 29 31 34 37 39 39 39 38 37 37 39 43 44 42 43 43 42 41 39 38 38 37 37 37 37 37 38 36 35 33 32 31 29 28 28 26 25 24 23 22 20 19 19 18 17
8 7 12 13 15 18 16 13 14 14 9 8 12 16 16 12 9 10 9 5 4 4 1 2 8 7 5 9 10 8 11 15 15 15 20 22 21 24 26 26 28 29 30 31 34 35 37 38 38 40 41 41 45 45 43 43 42 41 40 39 37 37 37 36 36 36 37 38 38 37 35 33 32 31 30 28 27 26 25 24 22 21 21 20 19 18
8 10 12 11 12 14 14 12 14 16 11 8 7 12 15 14 13 12 10 7 6 5 6 6 6 6 7 6 5 8 12 13 15 16 18 20 23 27 28 27 29 31 31 32 33 34 36 40 43 44 46 47 47 46 45 44 43 41 39 38 36 36 36 35 35 35 36 38 38 38 37 35 33 31 30 28 27 26 25 24 23 22 22 21 20 19
8 12 13 12 11 10 11 12 14 18 13 7 6 9 11 13 13 12 9 8 6 5 8 8 5 5 8 5 2 6 11 11 14 17 16 18 24 27 28 29 30 31 32 33 35 36 38 42 46 47 48 47 46 46 46 45 43 41 39 37 36 36 35 35 34 34 35 36 36 37 37 36 34 31 31 30 28 27 26 25 24 24 23 22 21 20
5 11 15 14 11 9 10 11 11 17 13 4 8 9 10 11 11 10 9 8 7 8 10 10 7 6 9 7 5 6 8 10 12 14 14 18 24 26 27 29 28 28 30 31 33 36 39 42 45 45 45 45 46 46 46 44 42 41 39 38 38 37 36 35 34 34 34 34 35 36 36 35 34 32 32 31 30 29 27 26 26 24 23 22 21 20
6 7 13 14 13 10 10 10 11 17 14 6 8 8 8 8 8 8 7 5 7 10 12 13 11 8 9 9 8 7 6 8 9 10 11 16 22 25 25 26 26 27 30 31 31 33 36 39 40 40 41 44 46 46 46 45 43 42 40 39 39 38 37 36 35 34 33 33 34 35 35 34 33 32 32 32 32 30 29 28 27 26 24 23 22 20
9 10 9 7 12 13 10 9 11 16 15 9 8 8 5 4 5 6 5 5 9 11 10 13 13 11 12 10 6 7 7 8 9 10 11 15 21 25 26 27 28 30 32 32 31 31 33 37 38 38 40 43 45 47 47 46 44 43 42 41 40 39 38 37 36 35 34 33 33 33 33 33 33 32 32 32 32 31 30 29 28 27 26 24 23 21
9 12 7 3 10 16 13 9 9 12 13 11 10 9 8 5 5 7 7 7 10 9 5 9 11 12 12 10 7 8 8 10 10 10 12 15 20 24 26 28 29 29 30 32 33 33 34 40 42 41 42 45 47 48 48 46 45 45 44 42 41 40 39 38 37 36 35 35 33 33 32 32 32 32 32 32 32 31 30 30 29 28 27 26 24 22
8 10 10 9 9 12 15 11 7 9 11 12 11 10 10 7 7 9 8 7 9 7 3 6 7 9 9 7 11 13 14 16 13 12 14 17 20 24 26 28 28 28 29 31 35 36 37 42 44 44 46 48 48 48 47 46 46 46 45 44 42 41 40 38 37 36 36 35 34 33 32 32 32 32 32 32 32 32 31 30 29 28 27 26 25 23
9 8 8 10 4 3 11 14 11 9 9 12 12 10 10 9 8 8 7 7 7 5 5 9 6 7 5 2 5 12 17 20 18 17 19 19 21 23 23 23 25 27 29 31 36 40 43 44 45 46 47 48 48 47 47 47 47 47 46 44 43 42 41 40 39 37 36 35 34 33 33 33 33 33 33 32 32 32 31 30 29 28 27 26 24 23
7 5 0 1 2 1 4 8 10 11 10 10 11 11 11 9 8 5 4 5 4 6 6 9 6 4 1 4 4 6 11 15 18 19 21 22 20 18 17 20 25 28 30 32 36 42 45 46 45 47 48 49 49 48 48 49 48 47 46 45 43 42 41 40 39 39 37 35 34 33 33 33 33 33 33 33 32 32 31 30 29 28 27 25 24 22
4 3 4 5 2 3 2 5 4 9 8 7 10 12 9 8 9 7 5 2 2 8 6 6 8 7 3 8 9 8 6 9 13 15 18 22 19 17 18 22 26 28 31 34 38 44 47 48 48 48 49 49 50 50 50 50 48 46 45 45 44 43 42 41 40 39 37 36 35 34 33 33 33 33 34 33 33 32 31 31 30 28 27 26 24 23
2 5 4 4 4 3 6 6 6 10 7 5 9 10 7 7 10 8 6 4 6 10 6 5 11 11 6 7 9 12 12 10 10 11 15 19 16 18 21 24 29 32 34 38 42 44 47 49 50 49 49 50 51 52 52 50 48 45 44 44 44 44 43 42 40 39 38 37 36 34 33 32 32 32 33 33 33 32 32 31 30 29 28 27 25 24
2 6 3 1 4 3 7 4 7 10 12 10 7 9 8 8 10 8 7 8 8 9 6 6 9 10 10 7 5 12 16 15 12 10 13 14 14 19 22 25 30 32 32 36 40 41 45 48 49 50 50 50 50 52 52 51 48 46 45 45 44 44 42 41 40 40 39 37 36 35 34 33 32 31 31 32 32 32 32 31 30 29 28 27 26 25
2 4 2 2 2 5 3 4 9 10 12 11 6 9 9 6 7 9 8 6 7 8 7 6 7 8 9 8 7 11 13 15 15 11 10 12 15 21 23 23 28 30 33 37 39 40 46 49 50 52 52 51 51 52 52 51 49 48 47 46 46 45 43 42 41 40 39 38 36 35 34 33 32 31 30 30 30 30 30 30 30 29 28 27 27 26
2 3 3 1 2 5 4 5 6 4 5 8 7 9 11 6 4 6 9 8 7 7 6 6 7 7 4 5 10 13 11 12 14 11 9 11 16 22 23 24 28 33 38 41 40 41 45 49 50 51 52 50 47 49 51 51 50 50 49 48 47 46 45 44 42 41 39 38 37 36 35 34 33 32 31 30 29 29 29 29 29 28 27 27 27 26
2 2 4 4 3 5 3 3 2 3 3 3 4 6 7 8 7 8 10 10 8 8 6 6 7 7 3 3 8 14 12 11 13 12 11 12 17 22 25 26 31 36 40 42 43 43 44 49 49 47 48 47 44 46 50 51 51 52 51 50 49 48 47 45 43 42 40 39 38 36 35 34 33 32 32 31 30 28 28 29 28 28 27 27 26 26
4 3 4 6 5 7 9 6 4 5 4 2 3 3 3 4 6 8 8 7 9 10 8 7 9 6 3 2 5 9 10 9 10 10 11 14 19 26 30 29 31 36 39 40 43 42 42 45 46 43 45 48 48 49 51 51 52 53 52 51 50 49 48 46 44 43 41 40 39 36 35 34 33 33 32 32 30 29 28 29 29 28 28 27 26 27
4 3 3 5 5 8 10 5 1 1 3 4 1 2 3 3 3 4 5 3 5 10 9 8 9 7 4 3 4 7 8 9 10 9 10 13 15 23 29 27 27 33 37 37 38 36 34 37 41 43 46 50 50 49 49 50 52 53 52 52 51 50 49 47 45 43 42 41 40 38 37 35 34 34 33 32 31 30 29 29 29 29 29 28 28 28
4 2 2 3 4 6 7 4 4 4 3 1 0 2 2 4 7 6 4 3 5 9 11 10 8 6 4 3 4 9 9 8 11 11 10 12 12 14 18 19 22 27 31 33 34 32 30 34 42 46 47 49 50 50 50 52 53 53 53 53 52 50 49 48 46 44 42 41 41 40 39 37 36 35 34 33 32 31 30 29 29 28 28 29 29 29
4 3 2 3 5 7 6 4 3 1 1 1 1 2 3 5 6 5 2 4 6 7 11 11 7 6 5 3 6 13 12 9 10 8 7 11 14 15 15 17 18 21 25 29 32 33 34 38 42 45 46 47 49 51 51 52 53 53 53 52 51 51 50 49 47 45 43 42 43 43 41 39 37 36 34 33 33 32 31 30 29 28 27 27 28 29
4 4 5 6 7 6 2 1 1 2 3 4 4 6 5 3 2 2 2 4 2 2 8 7 4 8 9 4 7 12 12 10 9 6 6 9 12 15 16 17 17 19 23 27 30 33 35 37 40 43 45 47 49 51 52 52 52 52 53 52 51 51 50 49 48 46 44 43 44 44 42 40 38 36 35 34 33 32 31 31 30 28 27 26 27 27
4 5 7 9 11 11 9 6 4 5 6 7 8 10 8 5 3 3 5 5 4 4 7 3 3 10 9 5 8 10 9 9 7 5 6 7 11 13 14 16 18 20 22 25 29 32 34 37 40 43 45 47 49 51 52 52 51 51 52 52 51 51 51 49 48 47 45 44 45 45 42 39 37 36 35 34 33 32 31 31 30 28 27 27 27 27
4 6 8 9 12 13 11 8 7 8 9 9 10 11 11 8 6 6 9 9 7 5 5 5 6 7 4 4 8 8 6 8 9 8 8 10 14 16 16 18 20 23 23 25 28 32 36 39 41 43 46 48 50 51 51 52 52 51 51 50 50 51 50 49 48 46 45 45 46 44 41 39 38 36 35 34 33 32 32 32 31 29 29 28 28 28
4 5 6 8 11 13 12 9 8 10 11 10 10 12 12 10 9 9 10 12 12 10 9 13 15 10 4 5 8 10 11 12 14 15 13 11 12 14 16 18 22 26 29 29 30 32 36 39 42 44 46 47 49 51 51 52 53 52 51 50 50 50 50 48 47 46 45 46 45 43 40 39 38 37 37 36 34 34 33 33 32 31 30 30 29 29
4 4 4 5 8 11 11 10 10 11 10 10 11 11 11 11 10 9 9 8 9 10 11 14 16 10 4 3 8 12 12 10 10 11 11 10 10 12 14 18 22 27 32 34 35 36 37 39 42 44 45 46 49 50 51 52 53 52 50 50 51 50 49 48 46 45 46 45 43 41 41 40 40 39 38 37 36 35 35 34 33 33 32 31 31 31
4 5 5 5 6 7 6 6 7 8 9 12 14 12 11 10 6 4 4 3 3 6 8 9 9 5 2 6 10 9 7 4 4 7 9 10 12 12 15 19 22 27 32 35 37 39 40 41 43 44 46 47 48 49 51 52 52 51 51 51 51 50 48 47 45 45 45 44 42 41 41 41 40 40 39 38 37 36 34 34 34 33 33 33 32 32
6 6 5 4 6 6 3 3 3 5 8 10 10 10 11 9 5 4 1 3 4 3 5 6 5 6 7 10 9 5 3 1 2 5 8 10 13 14 16 19 22 25 29 32 34 37 41 42 44 46 48 48 49 50 51 52 52 52 52 52 51 49 48 46 45 45 45 44 43 41 41 40 39 39 38 37 36 34 34 34 34 35 34 33 33 33
8 7 5 4 4 4 3 2 3 6 8 4 0 3 9 8 5 6 4 6 7 5 6 6 8 11 11 10 9 6 3 1 2 4 7 9 13 16 17 19 21 23 25 27 28 32 38 42 44 46 49 49 49 49 50 50 50 50 51 51 49 48 47 46 46 46 45 44 43 41 40 39 38 38 37 35 35 34 34 35 35 35 34 33 33 33
9 8 6 4 5 5 4 3 6 8 5 2 6 5 3 4 3 6 8 9 13 11 12 11 11 13 14 13 13 12 8 5 4 5 8 10 12 15 18 19 20 20 20 23 25 28 35 41 43 45 48 48 46 47 49 49 48 48 49 48 47 47 47 46 45 45 44 44 42 41 40 39 38 37 36 35 34 35 35 35 35 35 34 33 33 33
10 8 6 5 5 6 4 5 7 3 1 2 2 6 3 0 1 4 8 9 14 13 12 13 14 15 15 17 18 15 12 11 9 5 10 13 13 14 18 19 19 18 18 20 24 27 32 37 41 43 44 44 44 45 48 48 47 47 47 46 45 46 46 45 45 44 44 43 41 40 39 39 37 36 35 34 34 35 35 35 35 34 33 33 34 34
12 8 6 6 6 6 5 5 4 3 2 5 3 5 4 2 4 3 4 6 12 13 12 12 14 16 17 19 21 17 11 9 8 5 11 16 15 15 15 16 17 18 16 18 22 25 28 33 37 39 40 41 42 44 46 47 47 46 45 45 45 45 45 44 44 43 42 41 41 40 39 38 37 36 35 35 35 36 36 35 34 34 34 34 35 35
13 10 7 5 5 6 6 5 4 3 4 5 3 5 5 5 6 6 3 4 8 14 17 14 14 17 17 19 22 18 10 6 5 5 15 19 17 15 14 13 14 14 13 16 18 21 26 30 34 36 37 38 40 42 44 46 46 45 45 44 44 44 44 43 43 42 41 40 40 39 38 37 36 35 34 34 35 35 34 33 33 32 33 34 34 34
14 10 6 5 5 6 7 6 4 4 3 2 3 7 8 6 7 7 6 2 6 15 20 17 15 17 18 20 20 13 4 3 2 8 18 21 16 14 14 14 12 9 8 12 15 19 23 27 31 33 34 35 38 39 41 43 43 43 43 43 43 43 43 42 42 40 39 37 36 35 35 34 33 32 32 32 32 32 31 30 30 30 31 31 32 32
13 8 5 6 6 7 9 7 3 2 1 4 7 11 12 8 6 8 7 2 6 14 20 20 17 17 22 24 19 9 6 4 6 12 20 19 13 12 13 14 13 9 3 7 13 17 20 24 27 29 31 33 34 36 38 39 40 41 42 42 42 42 41 40 38 36 34 33 33 33 32 31 30 30 30 29 28 28 27 27 27 28 29 30 30 30
9 7 5 7 7 8 9 7 3 1 1 6 11 15 14 6 5 6 4 0 6 13 19 21 18 19 24 24 17 11 11 13 13 15 18 18 18 17 15 12 10 10 6 3 12 16 18 21 24 25 28 30 30 33 36 38 39 40 41 41 40 39 37 35 32 31 31 31 32 31 31 30 29 27 27 26 25 25 26 26 27 28 28 28 28 29
8 6 4 6 6 7 8 7 4 1 4 10 13 13 11 3 4 2 3 3 7 14 18 19 18 21 26 24 20 19 19 19 19 20 22 25 25 24 21 15 12 13 11 3 11 18 20 21 22 23 25 26 27 31 33 35 37 38 38 38 36 34 32 30 28 28 29 29 30 30 29 29 27 26 26 26 26 26 26 26 26 27 28 27 28 28
4 4 3 5 5 6 7 6 3 1 6 14 13 7 7 4 1 4 4 4 11 17 19 19 19 24 27 25 23 25 25 23 23 26 30 31 28 27 27 23 19 17 14 8 7 15 20 23 25 25 26 26 27 29 31 33 35 36 36 35 32 30 29 28 27 27 27 28 28 28 28 27 25 24 25 25 25 25 25 25 26 27 27 27 27 28
2 1 2 4 3 4 6 4 1 2 7 12 8 4 5 6 7 8 5 5 13 18 19 21 22 25 28 25 23 26 28 27 29 33 33 32 30 29 28 27 25 21 18 15 9 9 15 21 26 28 30 30 30 30 30 32 33 34 34 32 29 28 27 26 26 26 26 26 27 27 26 24 23 23 24 24 23 23 23 25 26 26 27 27 27 28
3 3 4 4 2 3 3 1 4 6 7 8 8 7 6 5 8 10 8 9 14 16 18 22 23 25 28 25 24 27 30 30 33 35 31 30 32 31 27 27 26 24 23 21 17 12 10 13 20 25 28 30 31 31 30 31 32 33 33 31 28 27 26 26 25 26 25 25 25 24 23 23 22 22 22 22 22 22 23 24 25 26 27 27 28 29
3 7 6 3 3 5 4 1 6 10 8 4 6 7 6 6 9 13 12 12 15 15 16 20 22 25 27 25 24 28 30 31 34 36 32 29 31 31 28 26 25 24 24 24 22 19 16 13 15 19 22 26 28 30 31 31 31 31 31 29 27 26 25 26 26 24 24 23 23 22 22 22 22 22 22 22 22 22 22 23 25 25 26 27 28 29
4 7 6 3 4 5 1 3 8 14 10 1 6 5 6 7 13 17 16 14 15 15 15 18 20 21 24 25 25 28 30 32 35 37 34 30 28 29 29 26 24 23 23 22 22 22 21 21 19 18 19 22 24 26 28 29 28 28 27 26 25 24 25 25 25 24 23 22 22 22 22 22 22 23 23 24 24 24 23 24 25 26 26 27 28 28
6 7 6 4 5 5 2 3 12 17 8 5 5 2 6 11 19 21 17 13 13 12 12 16 18 19 23 25 27 29 31 32 33 35 35 32 28 28 29 26 23 22 21 20 21 21 21 23 22 22 21 21 21 22 23 24 24 25 24 24 24 24 24 24 24 24 24 23 23 23 23 23 24 24 24 25 26 26 26 26 27 28 27 27 28 27
10 7 6 5 5 4 2 5 14 14 3 5 2 10 13 18 24 24 17 13 11 10 11 15 15 16 19 22 26 29 30 31 32 32 33 33 29 27 28 25 21 20 20 19 19 19 20 20 20 20 21 20 20 21 22 23 23 23 23 22 22 22 22 23 24 24 24 24 24 24 24 24 24 25 25 26 26 27 28 28 28 29 28 27 27 27
9 5 6 5 3 3 4 8 13 10 4 7 14 20 21 21 22 22 19 16 12 10 12 15 16 17 17 19 22 25 28 29 30 30 31 32 28 26 27 25 20 19 19 18 17 17 17 17 18 17 17 16 16 17 19 20 21 22 22 22 22 21 21 22 23 23 23 24 24 25 25 25 26 26 27 27 27 29 30 29 29 29 28 27 26 25
10 8 9 7 4 5 9 13 14 10 10 16 22 23 22 21 19 20 21 19 15 12 10 13 17 18 16 16 18 21 25 27 29 29 30 31 27 25 27 26 21 19 18 17 16 16 16 15 15 16 16 15 13 12 13 15 17 18 20 20 21 21 21 22 22 23 23 23 24 24 24 25 26 27 28 28 27 28 28 28 28 28 28 28 27 25
Wind_Direction
172 181 199 208 210 205 202 206 216 238 334 267 216 218 223 224 232 224 219 245 227 225 226 224 236 243 237 220 199 192 192 197 196 187 185 186 186 188 191 194 196 197 200 200 201 203 206 209 211 212 213 215 217 218 218 218 218 217 216 217 218 218 218 219 219 218 219 220 220 220 220 221 221 221 221 220 219 218 219 221 223 225 225 225 223 218
177 202 214 211 204 190 192 200 213 229 239 255 238 222 229 229 238 243 238 258 228 234 241 230 242 248 241 229 205 190 191 200 199 192 190 189 190 193 194 196 197 196 195 195 197 201 204 207 210 212 213 215 216 217 219 219 219 219 218 219 220 220 221 221 221 221 222 223 224 225 225 225 226 225 225 224 223 222 222 222 224 225 225 225 224 218
192 221 220 201 173 166 186 197 206 220 228 238 243 236 234 221 248 262 251 253 235 235 245 230 242 253 249 234 208 191 197 206 204 200 195 191 191 194 196 196 194 190 190 193 197 200 202 204 208 211 213 215 217 217 220 220 220 220 220 221 222 223 223 223 223 223 224 226 228 229 230 229 230 230 230 229 227 225 224 224 225 226 225 226 225 219
195 226 213 169 158 187 194 195 203 214 224 230 229 232 230 203 235 246 221 228 240 240 256 255 254 261 255 232 209 202 206 209 208 207 203 196 195 196 197 195 192 189 190 192 195 199 200 202 204 208 211 215 216 216 219 221 220 221 221 222 222 223 224 224 224 225 225 228 229 230 231 231 231 233 233 233 231 228 226 225 225 226 225 226 226 222
206 202 166 157 172 196 196 194 201 210 220 224 226 229 227 218 231 252 335 347 272 237 240 256 267 265 246 235 227 207 209 213 208 208 210 208 204 199 197 197 195 194 193 193 194 197 199 201 202 204 207 212 216 216 219 221 221 221 221 222 222 223 224 225 225 226 226 227 228 229 229 229 230 232 234 233 231 228 226 225 225 226 225 226 227 224
226 168 145 165 185 196 203 205 202 206 218 224 225 226 229 233 239 260 296 315 283 232 205 216 249 258 231 234 239 197 198 215 207 204 211 210 203 199 200 201 200 199 199 198 198 199 199 200 201 202 204 208 213 215 218 220 221 221 221 222 222 223 223 224 225 226 227 228 228 228 228 228 228 230 231 231 229 227 226 227 227 226 226 226 227 226
224 178 158 180 189 190 204 214 206 203 217 234 218 213 222 234 240 248 266 273 258 257 254 222 245 256 227 227 233 192 192 211 206 208 215 208 200 203 205 203 201 201 200 200 201 200 198 198 200 203 206 210 213 216 218 221 222 222 223 222 223 224 223 223 224 225 227 228 228 229 229 231 231 232 233 232 230 228 227 229 230 228 228 228 227 228
198 184 175 191 195 193 203 213 204 194 212 241 196 186 207 223 232 238 250 252 258 292 292 259 241 261 254 229 216 194 202 211 205 212 217 206 203 207 208 206 204 202 199 198 199 199 198 201 205 208 212 215 216 218 220 222 222 222 223 223 223 224 224 224 224 224 226 226 228 229 230 232 234 234 236 235 233 230 228 229 231 229 229 229 229 229
182 200 188 187 202 207 209 212 197 189 213 237 161 167 196 214 226 231 244 251 260 287 269 244 213 250 258 228 151 191 211 214 209 216 215 206 208 209 208 208 206 204 201 200 200 200 202 205 210 213 215 216 216 217 221 222 222 222 223 223 224 225 225 225 225 224 225 225 227 229 230 232 233 235 236 237 235 231 228 229 229 229 229 231 231 230
203 210 192 191 212 216 211 216 191 188 211 206 150 172 192 206 219 222 235 247 250 254 251 239 212 234 260 237 193 192 212 215 212 218 214 208 212 211 209 210 207 203 203 203 202 203 206 209 213 214 214 214 215 218 222 223 222 223 222 223 224 224 225 226 225 224 224 225 226 229 230 231 232 233 234 235 234 231 228 229 229 228 228 229 230 231
268 232 195 200 216 209 203 212 194 195 203 161 155 181 182 196 209 213 226 235 246 247 242 237 218 222 259 249 214 201 214 213 204 211 212 211 215 214 212 210 206 203 203 203 203 204 207 210 212 210 210 213 215 217 221 223 223 223 223 223 224 224 225 226 226 225 224 224 226 228 229 230 230 230 231 232 231 229 227 228 229 228 227 227 229 230
248 237 205 205 210 197 194 206 200 202 200 178 186 192 173 182 190 205 205 196 236 246 231 226 218 218 242 245 211 199 212 216 209 207 205 207 214 215 212 210 206 204 202 201 202 202 202 207 209 206 207 212 214 216 220 222 222 223 224 223 223 224 224 225 226 226 226 225 226 228 228 229 229 229 229 230 230 229 227 227 229 229 227 225 226 228
232 227 206 218 206 192 193 202 195 199 202 199 200 194 193 195 180 203 205 196 231 245 219 207 207 219 242 251 238 226 226 227 222 215 210 209 211 212 211 209 207 205 202 199 201 200 200 207 209 206 207 212 214 216 219 220 221 222 224 223 223 223 223 225 225 225 226 226 226 227 227 227 228 228 228 229 230 230 228 228 229 230 228 225 225 225
227 216 202 213 211 196 198 201 196 193 197 201 201 195 199 197 195 209 209 210 230 239 201 169 192 232 252 252 233 231 240 240 230 222 223 218 213 215 214 209 206 205 201 199 201 203 205 208 209 209 210 213 215 217 218 219 220 221 223 223 222 223 223 224 225 224 225 225 225 226 227 227 228 228 228 228 230 231 231 230 229 231 230 228 227 227
223 220 204 202 209 207 206 213 211 189 188 202 201 203 207 203 210 214 208 216 234 248 197 165 182 229 225 208 210 218 235 238 230 224 226 227 222 221 217 207 203 204 202 200 203 209 212 213 211 210 212 215 216 216 216 217 219 221 222 222 221 222 223 224 225 224 224 224 225 226 226 227 228 228 229 229 229 231 232 232 231 232 232 231 231 230
239 246 37 236 303 351 219 233 219 196 197 203 195 205 216 208 209 220 226 226 240 265 226 186 212 246 244 314 284 227 234 233 228 222 220 225 222 212 207 203 203 205 203 201 204 210 215 216 213 210 213 216 216 215 215 216 218 220 221 222 222 222 222 223 224 225 225 225 226 226 226 226 226 227 229 230 230 231 232 233 233 233 233 234 234 234
255 244 22 345 260 142 23 329 253 220 209 181 194 210 205 193 207 222 232 208 217 248 234 188 231 251 273 278 254 223 232 230 228 223 220 225 213 194 200 205 204 204 202 204 209 213 214 215 216 214 214 215 216 216 215 216 219 220 221 222 222 222 223 224 224 225 225 226 227 227 226 225 225 226 228 230 231 231 232 233 234 235 235 235 236 236
305 282 327 317 204 133 351 320 260 249 234 184 200 200 167 181 214 227 231 211 210 238 228 183 228 236 226 245 224 210 223 226 220 218 222 224 205 195 206 209 210 209 207 211 215 215 214 214 216 216 214 215 217 217 217 218 220 220 222 223 223 222 223 223 224 225 225 225 226 227 226 224 224 225 227 230 231 232 233 234 234 235 235 235 235 236
328 285 288 235 232 313 335 285 232 236 231 229 213 175 166 200 208 204 224 228 220 236 236 199 226 237 224 223 209 208 219 227 223 214 223 221 200 203 210 209 214 212 207 211 213 212 213 214 215 216 215 214 215 217 218 220 220 219 221 223 224 224 224 224 224 225 225 225 225 226 226 225 224 224 226 228 231 232 233 234 235 235 235 235 235 235
323 267 230 132 286 305 315 222 218 213 214 228 219 183 195 220 208 199 211 226 224 234 240 212 217 238 232 227 235 226 217 222 223 212 219 219 200 206 211 207 209 208 208 213 211 210 214 215 215 218 218 215 214 216 218 218 218 218 220 221 223 224 225 224 225 224 224 224 224 225 226 225 225 224 225 227 230 232 233 234 234 235 235 235 235 235
314 253 251 311 305 262 215 183 207 206 198 214 215 205 205 201 196 208 213 219 224 231 234 223 227 242 228 202 231 237 224 220 225 216 215 216 205 208 210 206 206 209 214 217 214 211 214 216 216 217 218 215 211 213 215 216 216 217 218 220 221 222 223 224 224 224 224 223 223 224 224 224 225 225 226 228 230 231 232 233 233 233 234 235 235 235
333 272 275 291 283 239 202 116 77 0 340 257 238 227 216 207 202 210 217 215 220 234 232 229 245 250 225 180 221 231 225 217 218 217 219 219 212 213 214 212 214 216 218 219 216 213 213 215 214 211 212 210 206 210 214 214 214 215 217 219 220 221 223 223 223 223 222 222 223 223 223 223 224 225 227 229 230 231 231 232 232 232 233 233 234 235
314 286 274 271 267 265 274 295 309 281 267 254 263 294 305 262 218 214 224 212 209 224 228 238 254 255 227 216 231 234 237 239 232 223 224 225 219 222 224 220 218 221 221 220 218 214 212 214 211 205 208 210 209 213 214 212 212 215 217 218 219 220 222 222 222 222 221 221 222 222 222 224 224 225 226 228 230 230 231 232 232 232 232 233 234 234
299 261 257 263 264 271 271 278 35 211 183 165 195 2 357 319 301 272 266 263 222 217 211 227 246 246 226 216 246 254 258 270 274 262 245 242 234 230 230 224 218 221 221 218 216 211 205 207 206 204 208 211 211 213 214 212 213 214 216 218 219 220 221 222 222 222 221 221 221 221 223 224 224 225 226 227 229 229 230 232 233 233 232 232 234 235
315 241 244 260 227 218 221 188 141 131 110 104 25 21 354 341 341 307 261 272 254 219 211 226 238 243 231 181 225 253 256 260 265 261 251 253 254 248 244 235 226 223 219 215 212 206 200 204 209 209 211 211 210 212 214 214 214 214 216 218 219 220 221 221 222 223 222 221 222 223 223 224 224 225 225 226 227 228 230 232 233 233 232 232 234 235
303 258 259 257 221 202 192 191 196 170 39 346 277 291 314 349 348 319 248 234 239 213 216 231 238 244 237 177 213 241 251 256 255 246 233 240 247 253 258 254 243 231 223 218 214 209 208 212 213 212 211 210 209 211 213 214 215 215 216 218 218 219 220 220 221 222 222 222 223 223 224 224 224 225 225 225 226 227 229 231 232 232 231 231 233 234
283 265 261 260 262 262 271 344 313 313 306 297 302 298 301 330 330 307 241 231 252 246 230 223 228 249 244 206 206 227 240 254 260 249 226 226 238 247 256 263 259 245 233 224 217 214 212 212 213 212 211 209 209 210 212 214 215 215 216 217 217 218 220 220 221 221 221 221 222 223 223 223 223 224 225 226 226 227 229 231 232 233 231 231 232 233
276 265 259 258 263 271 286 298 291 285 280 282 292 291 292 298 276 241 237 261 328 300 245 196 197 243 242 218 220 228 235 245 252 249 240 246 255 256 260 265 263 253 242 228 218 215 214 213 213 212 211 209 209 210 212 213 214 214 216 216 215 217 219 220 221 221 221 221 222 223 222 221 223 224 225 227 227 228 230 231 232 233 232 232 232 233
274 265 264 264 266 270 278 279 270 268 269 269 271 274 279 278 259 243 250 261 270 260 270 304 280 259 272 275 261 266 278 278 280 288 296 291 283 279 276 271 263 258 250 235 222 217 218 218 215 213 212 210 209 209 211 211 212 214 216 215 214 216 219 220 221 221 220 220 221 222 221 221 222 224 226 228 228 228 230 231 231 232 232 232 232 232
269 265 269 270 272 273 271 263 259 263 265 264 260 260 266 268 261 257 257 257 250 242 257 278 281 284 302 305 305 310 312 311 302 301 308 305 293 289 283 273 264 259 254 246 236 227 224 223 219 215 212 209 208 209 210 210 212 214 215 215 214 216 218 220 221 220 220 221 222 222 221 222 223 224 225 227 228 228 229 230 231 231 231 231 231 232
259 267 309 307 280 271 265 254 248 250 259 267 266 261 257 257 258 257 260 263 255 246 245 256 269 278 274 317 322 307 303 313 308 307 319 320 312 304 289 276 266 258 254 250 245 238 233 227 221 214 211 209 209 210 210 211 212 213 213 214 214 216 218 220 220 220 221 222 222 222 222 222 223 224 226 227 228 229 229 230 231 231 231 231 231 232
255 270 309 319 284 269 259 240 238 246 262 267 263 254 243 239 239 238 256 292 286 266 255 247 256 273 334 337 316 289 283 308 317 323 325 316 311 303 288 278 270 262 258 253 247 241 235 228 219 213 212 211 209 208 210 210 210 210 211 213 215 215 216 219 219 220 221 222 223 222 222 223 224 225 226 228 229 230 231 232 233 233 233 233 233 233
255 268 283 276 274 272 233 218 258 265 261 258 249 229 212 206 196 179 184 5 3 305 273 255 274 323 336 327 314 283 249 264 312 323 316 310 307 297 287 282 275 268 261 254 248 241 234 226 220 216 215 212 210 210 211 210 209 210 212 213 213 213 214 217 218 219 220 222 222 222 222 223 225 226 227 229 229 231 232 233 234 235 235 235 235 236
245 250 255 251 263 269 254 264 267 245 239 241 26 186 188 178 158 153 133 38 27 11 334 315 321 331 328 319 311 294 274 299 346 327 318 316 313 304 297 294 289 280 267 256 248 240 232 225 220 217 215 214 212 210 210 209 209 209 211 212 212 212 213 216 217 218 219 221 222 222 222 223 225 226 228 229 229 231 232 233 234 235 236 237 238 239
238 236 237 236 244 267 292 266 225 223 218 118 58 55 153 160 110 135 125 60 34 18 358 342 332 330 325 316 307 293 279 280 297 328 336 328 321 315 307 303 302 292 271 254 243 234 227 222 217 215 214 212 208 206 207 207 207 208 210 212 211 211 213 215 216 217 219 220 222 222 222 223 224 226 227 228 230 231 232 234 235 236 236 237 239 240
230 229 228 230 238 260 273 221 209 229 5 176 69 37 49 19 356 165 146 70 36 20 1 343 333 330 324 316 309 296 282 273 266 299 346 341 333 326 313 308 310 302 276 252 240 230 222 216 213 212 211 207 203 204 207 207 206 208 209 210 210 210 211 213 215 217 219 220 222 223 223 223 224 225 226 227 229 231 232 234 235 235 236 238 239 241
218 222 222 225 229 240 247 227 225 318 306 202 175 34 21 317 321 267 177 79 39 19 1 343 335 335 330 321 315 306 293 272 253 283 351 351 343 332 321 316 315 305 277 250 240 231 219 212 209 208 206 203 201 203 205 205 205 206 206 206 207 209 210 212 215 217 219 221 222 222 223 224 224 225 226 227 229 230 232 234 235 236 237 239 240 242
207 212 205 208 225 240 250 247 229 234 214 169 120 13 341 298 297 289 232 102 41 11 359 350 340 337 334 326 319 310 291 261 251 325 349 349 348 344 336 332 330 314 277 246 235 228 218 211 208 207 204 202 201 202 203 203 204 205 205 205 206 207 210 213 216 218 220 221 222 223 224 225 226 226 228 229 230 232 233 235 237 238 240 241 242 244
198 204 195 202 233 242 241 238 216 200 185 100 9 338 329 303 276 258 223 161 25 4 358 351 341 340 339 330 325 324 300 251 295 349 342 342 353 1 354 350 350 332 275 237 225 222 217 209 206 205 203 201 201 203 204 205 205 205 204 205 206 207 210 213 216 219 221 222 223 224 225 226 227 228 229 231 232 234 235 237 238 239 241 242 243 245
189 190 190 206 230 244 238 240 242 206 160 8 339 328 329 315 261 224 205 187 12 2 355 347 339 342 342 335 338 10 36 353 336 332 333 345 9 20 14 9 7 0 313 224 213 215 215 207 202 200 200 202 203 203 203 204 204 204 204 205 206 208 211 215 217 219 221 222 223 224 225 226 227 228 229 230 232 233 234 235 236 238 240 241 242 244
184 181 192 208 226 245 236 235 260 236 44 354 329 326 335 320 221 202 189 122 10 2 353 344 338 342 344 342 352 12 8 359 353 340 348 17 37 37 35 34 27 23 22 197 195 199 205 205 204 203 201 202 202 202 202 203 202 204 205 205 207 210 213 215 216 218 220 221 222 224 225 226 227 227 228 229 230 232 233 234 235 237 239 240 241 242
179 175 189 208 223 242 233 236 263 226 42 357 327 330 353 344 200 147 78 69 31 11 351 341 344 349 347 347 353 356 356 1 2 4 20 38 43 41 44 51 50 43 36 80 171 180 188 194 198 201 200 199 200 201 202 202 202 203 205 206 208 209 211 212 213 215 218 220 222 224 225 226 227 227 228 230 231 233 234 235 237 239 240 241 242 243
169 164 176 197 214 233 223 222 242 203 24 359 337 342 20 14 348 34 46 59 41 23 357 346 352 354 351 347 346 354 0 1 5 20 35 40 41 44 48 52 58 59 51 57 137 169 179 183 187 190 191 192 195 197 199 201 200 201 203 205 206 206 207 208 210 213 216 219 221 223 225 227 228 228 229 232 233 235 237 238 239 240 241 242 243 244
63 80 207 197 203 226 211 186 54 349 8 12 15 63 65 33 16 20 21 34 36 27 6 355 352 353 355 350 343 353 2 3 12 26 34 35 38 43 47 50 58 65 64 63 85 145 173 180 182 184 186 188 190 193 196 198 198 199 201 203 202 202 204 205 206 209 214 217 220 223 225 226 228 230 231 233 234 235 237 238 240 242 243 244 244 245
33 321 273 229 239 294 261 274 26 11 11 32 60 89 85 50 20 16 20 28 30 23 11 1 352 352 357 354 346 354 1 4 16 25 26 28 35 40 44 48 54 61 67 71 82 104 140 171 181 184 185 186 188 190 193 196 198 200 200 200 199 198 198 199 201 205 209 212 216 219 220 222 225 227 229 231 233 235 236 238 240 241 242 244 245 244
311 313 302 273 296 310 287 306 20 4 354 36 85 79 68 47 15 4 3 10 18 17 10 3 354 349 355 354 347 350 356 3 16 22 22 24 31 37 41 46 52 57 62 67 75 87 102 129 159 175 179 181 183 187 191 196 200 203 202 200 197 194 194 194 195 197 201 207 211 212 215 219 222 225 227 230 233 235 236 238 240 242 243 244 245 244
307 325 338 337 319 323 1 72 15 347 330 157 122 68 32 13 353 346 342 349 3 6 1 358 352 348 353 356 350 348 355 4 13 19 21 21 23 29 35 40 48 53 55 59 66 77 91 105 120 139 155 167 176 183 189 193 199 204 205 202 197 193 192 194 194 193 194 199 205 209 212 216 219 223 227 230 231 233 234 236 239 241 241 243 243 242
317 326 345 347 328 320 309 7 354 339 316 168 144 338 332 330 327 325 325 332 346 352 346 347 350 350 352 355 355 353 357 5 12 17 21 21 19 21 27 34 44 50 53 59 63 68 79 89 99 112 125 138 153 167 177 183 189 195 198 198 196 193 192 193 194 194 194 197 203 208 212 215 217 220 224 227 230 231 231 232 236 238 238 240 242 241
323 328 343 336 319 309 298 348 351 343 320 166 261 300 302 310 314 314 312 315 325 334 331 333 343 350 349 353 359 357 356 3 12 16 20 22 21 19 21 30 43 51 54 58 61 64 70 76 84 97 107 116 131 145 156 164 171 177 182 185 189 192 193 193 193 195 197 201 205 209 212 213 214 216 219 222 224 227 227 228 231 234 236 239 240 241
341 343 347 339 324 334 345 342 341 338 297 273 292 296 300 306 309 307 305 305 307 315 321 321 326 337 347 356 2 359 354 359 9 14 18 22 22 17 18 27 42 52 56 62 64 64 67 68 71 81 90 100 117 134 144 151 158 163 168 173 177 183 190 193 193 195 199 202 207 210 212 212 212 213 214 217 219 223 226 227 228 231 235 238 238 239
355 349 347 349 336 326 330 328 326 316 286 281 288 294 298 300 297 295 296 296 293 292 296 300 306 320 338 353 1 360 356 359 6 10 15 20 21 16 18 26 37 45 52 62 69 68 67 66 66 72 78 84 97 119 136 148 156 161 166 171 174 179 186 191 193 195 198 201 205 209 210 213 214 215 216 217 219 223 228 229 230 231 234 237 238 238
Height
1489 1492 1492 1489 1486 1486 1488 1491 1492 1492 1493 1495 1495 1497 1497 1496 1493 1489 1489 1485 1483 1490 1490 1487 1488 1487 1486 1484 1483 1486 1488 1489 1491 1492 1495 1497 1499 1501 1503 1504 1506 1507 1511 1515 1518 1521 1524 1526 1529 1532 1535 1537 1540 1543 1545 1548 1550 1553 1556 1558 1560 1563 1565 1567 1569 1571 1573 1575 1576 1578 1580 1582 1584 1586 1588 1589 1591 1592 1593 1595 1596 1597 1599 1600 1601 1602
1489 1489 1485 1481 1482 1485 1488 1491 1493 1494 1495 1496 1496 1497 1496 1496 1492 1487 1488 1486 1483 1490 1490 1485 1488 1486 1483 1482 1480 1483 1487 1487 1487 1489 1491 1493 1496 1498 1499 1501 1504 1507 1512 1515 1517 1519 1522 1525 1527 1530 1532 1535 1537 1539 1542 1545 1548 1551 1553 1556 1558 1561 1563 1565 1567 1569 1571 1573 1575 1577 1579 1582 1584 1585 1587 1588 1590 1591 1593 1594 1595 1596 1598 1599 1600 1601
1490 1485 1479 1479 1482 1486 1489 1491 1494 1496 1496 1497 1496 1498 1498 1494 1492 1489 1487 1486 1485 1490 1490 1486 1488 1485 1479 1479 1478 1480 1482 1482 1483 1483 1485 1488 1491 1493 1495 1498 1502 1506 1509 1511 1514 1516 1519 1522 1525 1527 1530 1532 1535 1537 1540 1543 1546 1548 1551 1553 1556 1558 1560 1563 1565 1567 1569 1572 1574 1577 1579 1581 1583 1584 1586 1588 1589 1591 1592 1593 1594 1595 1597 1598 1599 1600
1488 1480 1476 1479 1482 1486 1490 1491 1493 1495 1496 1495 1495 1497 1497 1493 1494 1493 1489 1487 1485 1486 1487 1487 1487 1482 1478 1478 1477 1477 1478 1478 1481 1482 1484 1485 1486 1487 1490 1494 1498 1501 1503 1506 1509 1512 1515 1519 1522 1524 1526 1529 1532 1535 1537 1540 1543 1545 1548 1550 1553 1556 1558 1560 1563 1565 1568 1571 1573 1576 1578 1580 1582 1583 1585 1586 1588 1590 1591 1592 1593 1594 1596 1597 1598 1599
1479 1474 1473 1478 1483 1486 1489 1490 1491 1494 1495 1493 1491 1493 1493 1492 1494 1493 1489 1488 1485 1484 1484 1487 1492 1485 1478 1480 1477 1474 1476 1477 1480 1482 1484 1485 1486 1489 1491 1493 1496 1497 1499 1501 1504 1508 1511 1514 1517 1521 1524 1526 1529 1532 1534 1536 1539 1542 1545 1548 1550 1553 1556 1558 1561 1563 1566 1569 1571 1574 1576 1578 1579 1581 1583 1584 1586 1588 1589 1591 1592 1593 1595 1596 1597 1598
1475 1472 1473 1477 1481 1484 1486 1487 1487 1490 1492 1491 1488 1487 1490 1491 1493 1493 1492 1491 1492 1492 1485 1487 1501 1492 1476 1477 1476 1473 1476 1477 1477 1479 1480 1482 1486 1489 1490 1491 1494 1496 1497 1499 1501 1504 1507 1511 1515 1518 1521 1523 1525 1528 1531 1533 1536 1539 1542 1545 1548 1551 1553 1556 1558 1561 1564 1566 1569 1571 1573 1574 1576 1578 1580 1582 1584 1586 1588 1589 1591 1592 1594 1595 1596 1598
1472 1471 1473 1476 1478 1481 1484 1485 1484 1486 1491 1490 1483 1482 1488 1491 1493 1494 1494 1496 1499 1497 1486 1485 1499 1495 1479 1475 1471 1471 1475 1474 1474 1475 1475 1478 1482 1484 1486 1488 1490 1492 1495 1498 1500 1503 1505 1508 1512 1514 1516 1518 1521 1524 1528 1531 1534 1537 1540 1543 1546 1548 1551 1553 1556 1558 1561 1564 1566 1568 1570 1572 1574 1576 1578 1580 1583 1585 1587 1589 1590 1591 1593 1594 1595 1596
1467 1471 1473 1475 1477 1479 1481 1481 1479 1482 1488 1487 1478 1480 1488 1490 1494 1494 1494 1497 1495 1492 1488 1483 1490 1496 1487 1475 1468 1469 1473 1473 1473 1473 1471 1475 1478 1478 1481 1484 1485 1488 1490 1493 1497 1500 1502 1504 1507 1509 1512 1514 1518 1522 1525 1528 1531 1534 1537 1540 1543 1546 1548 1551 1553 1556 1558 1561 1563 1566 1568 1570 1573 1575 1577 1579 1582 1584 1586 1587 1589 1590 1591 1593 1594 1595
1464 1469 1471 1474 1478 1478 1475 1474 1474 1479 1485 1482 1477 1480 1485 1488 1491 1492 1494 1496 1492 1496 1499 1486 1486 1498 1491 1473 1468 1470 1472 1474 1473 1470 1470 1471 1473 1474 1477 1479 1481 1484 1487 1489 1492 1495 1498 1500 1502 1505 1508 1512 1517 1520 1522 1525 1528 1532 1535 1538 1541 1543 1546 1548 1550 1553 1556 1558 1561 1564 1566 1568 1571 1574 1576 1578 1580 1582 1584 1586 1587 1588 1590 1591 1593 1594
1463 1465 1468 1471 1474 1473 1471 1472 1472 1477 1481 1478 1477 1479 1482 1486 1488 1490 1494 1493 1494 1503 1502 1488 1486 1498 1490 1470 1469 1473 1472 1471 1469 1466 1466 1467 1469 1471 1473 1476 1479 1482 1485 1487 1490 1492 1495 1497 1499 1503 1507 1510 1514 1516 1519 1522 1526 1529 1532 1535 1538 1540 1543 1546 1548 1551 1553 1556 1559 1561 1563 1566 1569 1571 1574 1576 1578 1580 1582 1584 1585 1587 1588 1590 1591 1592
1462 1463 1464 1465 1466 1466 1468 1471 1471 1474 1476 1475 1478 1480 1483 1486 1486 1489 1490 1491 1502 1503 1494 1484 1482 1493 1493 1470 1462 1468 1465 1462 1463 1463 1464 1464 1465 1468 1470 1473 1477 1479 1481 1484 1488 1490 1493 1496 1499 1502 1505 1508 1511 1513 1516 1519 1523 1526 1529 1532 1535 1538 1541 1543 1546 1548 1551 1553 1556 1558 1561 1563 1566 1569 1571 1573 1575 1578 1580 1581 1583 1585 1586 1588 1589 1591
1463 1463 1463 1461 1461 1463 1467 1470 1471 1471 1472 1475 1478 1481 1487 1491 1490 1494 1494 1497 1509 1500 1483 1477 1477 1488 1491 1468 1456 1457 1454 1454 1457 1459 1460 1460 1461 1463 1466 1469 1472 1474 1476 1480 1484 1487 1491 1494 1496 1499 1502 1504 1508 1510 1512 1516 1520 1523 1526 1529 1532 1535 1538 1540 1543 1546 1548 1551 1553 1556 1558 1561 1564 1566 1568 1570 1573 1575 1577 1579 1581 1583 1584 1586 1587 1589
1462 1459 1459 1460 1459 1460 1465 1470 1471 1471 1471 1475 1477 1481 1493 1500 1502 1506 1504 1501 1503 1491 1476 1473 1477 1483 1476 1459 1454 1454 1451 1451 1452 1452 1454 1455 1456 1458 1461 1464 1467 1470 1473 1476 1480 1483 1486 1488 1490 1494 1497 1500 1503 1506 1508 1512 1516 1519 1522 1525 1528 1531 1534 1537 1540 1543 1545 1548 1551 1553 1556 1559 1561 1563 1566 1568 1571 1573 1575 1578 1579 1581 1582 1584 1585 1586
1464 1459 1457 1460 1459 1457 1460 1465 1470 1471 1470 1473 1475 1480 1491 1500 1508 1512 1505 1499 1497 1486 1474 1472 1479 1480 1467 1454 1450 1449 1449 1448 1447 1449 1451 1451 1453 1454 1456 1460 1463 1467 1470 1472 1475 1479 1480 1482 1486 1489 1492 1495 1498 1501 1505 1508 1512 1515 1518 1521 1525 1528 1531 1535 1537 1540 1543 1545 1548 1551 1553 1556 1559 1561 1563 1566 1568 1571 1573 1575 1577 1579 1580 1582 1583 1585
1469 1465 1457 1456 1459 1457 1456 1457 1460 1463 1467 1468 1467 1472 1480 1484 1495 1501 1497 1496 1495 1485 1476 1476 1481 1475 1463 1453 1443 1440 1442 1442 1443 1446 1448 1449 1450 1451 1454 1457 1461 1463 1466 1468 1470 1473 1475 1477 1481 1485 1488 1491 1493 1497 1501 1504 1507 1510 1513 1517 1521 1525 1528 1531 1534 1537 1540 1543 1545 1548 1551 1553 1556 1559 1561 1563 1566 1568 1570 1573 1575 1577 1578 1580 1582 1583
1471 1466 1456 1455 1457 1457 1457 1454 1453 1458 1466 1464 1461 1469 1473 1470 1475 1484 1484 1483 1485 1485 1479 1476 1471 1457 1451 1446 1437 1438 1439 1437 1440 1441 1442 1445 1446 1449 1453 1454 1456 1458 1460 1463 1465 1467 1470 1474 1477 1481 1484 1487 1490 1493 1496 1499 1502 1505 1510 1514 1518 1522 1525 1528 1531 1534 1537 1540 1543 1545 1548 1551 1553 1556 1558 1561 1563 1566 1568 1571 1573 1575 1577 1578 1580 1582
1476 1466 1457 1457 1457 1455 1458 1456 1453 1457 1461 1460 1462 1466 1463 1460 1466 1478 1483 1477 1481 1488 1477 1468 1465 1454 1450 1447 1435 1437 1441 1437 1438 1438 1438 1440 1441 1445 1448 1449 1452 1453 1455 1458 1458 1461 1464 1468 1472 1475 1479 1482 1485 1489 1491 1494 1498 1502 1506 1510 1515 1519 1522 1525 1528 1531 1535 1538 1540 1543 1545 1548 1550 1553 1556 1558 1561 1563 1566 1568 1570 1573 1575 1576 1578 1580
1483 1472 1459 1459 1458 1455 1456 1457 1453 1452 1453 1457 1462 1459 1457 1463 1465 1471 1483 1484 1487 1490 1474 1463 1463 1457 1457 1452 1436 1435 1441 1438 1437 1436 1435 1436 1438 1441 1443 1444 1446 1447 1450 1452 1452 1456 1459 1463 1467 1470 1474 1477 1479 1484 1487 1490 1494 1499 1503 1507 1511 1515 1518 1521 1525 1528 1532 1534 1537 1540 1542 1545 1547 1550 1553 1555 1558 1561 1563 1565 1567 1570 1572 1574 1576 1578
1486 1480 1463 1458 1461 1456 1453 1455 1455 1451 1449 1452 1453 1449 1455 1470 1471 1471 1481 1484 1485 1487 1476 1466 1462 1453 1450 1446 1436 1435 1437 1435 1434 1434 1433 1433 1434 1436 1437 1439 1441 1443 1447 1448 1450 1454 1456 1459 1463 1465 1469 1472 1476 1480 1484 1488 1492 1495 1499 1503 1507 1511 1514 1519 1522 1526 1529 1531 1534 1537 1540 1543 1545 1548 1550 1553 1555 1558 1560 1562 1565 1567 1569 1572 1574 1575
1485 1484 1470 1459 1460 1459 1454 1454 1455 1451 1448 1448 1449 1448 1449 1458 1462 1464 1468 1470 1475 1481 1477 1471 1466 1453 1441 1436 1434 1435 1432 1430 1431 1431 1430 1430 1430 1431 1432 1434 1437 1439 1442 1443 1446 1449 1450 1453 1456 1459 1463 1467 1471 1475 1479 1485 1489 1492 1496 1499 1503 1508 1512 1516 1519 1522 1525 1528 1531 1534 1537 1540 1542 1545 1548 1550 1552 1555 1557 1559 1562 1564 1567 1569 1571 1573
1484 1485 1477 1463 1458 1458 1454 1451 1451 1451 1450 1450 1452 1451 1450 1450 1453 1456 1457 1455 1462 1472 1473 1473 1469 1450 1432 1428 1430 1429 1427 1426 1426 1425 1425 1424 1425 1426 1427 1429 1432 1434 1436 1438 1441 1443 1445 1448 1451 1455 1459 1464 1468 1472 1476 1481 1484 1488 1492 1495 1499 1503 1507 1511 1515 1518 1522 1525 1528 1531 1534 1537 1540 1543 1545 1547 1550 1552 1554 1557 1559 1561 1564 1566 1568 1570
1485 1485 1482 1471 1464 1458 1452 1449 1452 1454 1455 1456 1455 1451 1449 1449 1451 1461 1464 1452 1450 1458 1461 1466 1467 1445 1425 1422 1423 1422 1421 1420 1420 1421 1421 1419 1421 1422 1423 1425 1427 1428 1431 1433 1435 1438 1440 1443 1447 1452 1457 1462 1467 1469 1471 1476 1479 1484 1487 1490 1495 1499 1502 1506 1510 1514 1518 1522 1525 1528 1531 1534 1537 1540 1542 1545 1547 1549 1551 1554 1556 1558 1561 1563 1565 1567
1487 1487 1485 1479 1469 1459 1452 1451 1453 1454 1455 1458 1458 1453 1451 1448 1447 1457 1462 1452 1447 1451 1449 1455 1460 1443 1422 1419 1421 1418 1417 1416 1416 1418 1417 1416 1417 1418 1419 1421 1422 1424 1426 1428 1431 1434 1437 1440 1445 1450 1454 1458 1461 1463 1467 1471 1475 1478 1482 1485 1490 1493 1497 1502 1506 1510 1514 1518 1521 1525 1528 1531 1534 1537 1539 1542 1544 1546 1548 1551 1553 1555 1558 1560 1562 1564
1487 1487 1485 1478 1467 1457 1452 1451 1452 1452 1453 1457 1458 1457 1458 1457 1455 1456 1456 1450 1448 1447 1447 1456 1460 1442 1422 1417 1419 1418 1416 1416 1416 1417 1417 1416 1415 1415 1416 1418 1419 1420 1422 1425 1429 1432 1435 1439 1443 1447 1450 1453 1457 1460 1464 1468 1470 1474 1478 1482 1485 1489 1493 1498 1502 1506 1510 1514 1518 1521 1525 1528 1530 1533 1536 1538 1541 1543 1546 1548 1550 1552 1555 1557 1559 1561
1489 1486 1483 1477 1468 1462 1458 1456 1454 1452 1454 1459 1461 1462 1462 1462 1462 1458 1453 1452 1451 1443 1441 1452 1454 1438 1421 1417 1418 1417 1416 1416 1415 1415 1417 1416 1415 1416 1416 1417 1418 1419 1421 1424 1427 1430 1434 1436 1438 1441 1444 1447 1452 1456 1459 1463 1466 1470 1473 1477 1481 1485 1490 1494 1498 1502 1506 1510 1514 1518 1521 1524 1527 1530 1532 1535 1538 1540 1543 1545 1547 1549 1552 1554 1556 1558
1492 1486 1483 1479 1471 1465 1464 1464 1461 1459 1461 1462 1462 1463 1463 1463 1464 1460 1455 1455 1453 1442 1435 1441 1442 1431 1420 1419 1420 1418 1415 1414 1413 1413 1414 1414 1414 1415 1415 1416 1418 1419 1421 1422 1424 1427 1430 1431 1434 1437 1440 1444 1448 1451 1455 1458 1461 1465 1469 1473 1477 1482 1486 1490 1494 1498 1502 1507 1510 1513 1516 1519 1523 1526 1529 1532 1534 1537 1540 1542 1544 1546 1549 1551 1553 1555
1492 1486 1483 1482 1475 1466 1467 1472 1471 1468 1467 1465 1462 1461 1462 1463 1464 1464 1462 1457 1451 1445 1438 1434 1433 1430 1424 1422 1422 1418 1415 1413 1411 1410 1411 1412 1412 1413 1413 1414 1415 1417 1419 1420 1423 1425 1426 1428 1431 1433 1437 1440 1443 1447 1450 1453 1457 1462 1465 1469 1474 1478 1482 1486 1490 1494 1498 1502 1506 1509 1512 1515 1519 1522 1525 1528 1531 1534 1536 1538 1541 1543 1545 1548 1549 1551
1493 1488 1482 1480 1477 1471 1470 1472 1471 1470 1468 1466 1464 1461 1460 1461 1462 1464 1463 1456 1452 1453 1445 1431 1429 1431 1427 1422 1421 1417 1414 1412 1410 1409 1409 1410 1410 1411 1411 1412 1412 1413 1415 1417 1420 1422 1424 1426 1427 1430 1433 1436 1440 1443 1447 1450 1454 1457 1460 1465 1470 1474 1478 1482 1486 1490 1494 1498 1501 1504 1507 1511 1515 1518 1522 1524 1527 1530 1533 1535 1538 1540 1542 1544 1546 1548
1493 1489 1481 1478 1476 1471 1469 1470 1469 1469 1467 1465 1464 1461 1458 1459 1460 1462 1460 1455 1454 1457 1450 1436 1432 1434 1429 1423 1420 1416 1413 1411 1409 1408 1409 1409 1409 1410 1410 1411 1411 1411 1412 1414 1416 1418 1420 1421 1423 1426 1429 1432 1436 1440 1443 1447 1451 1454 1457 1462 1467 1471 1474 1478 1481 1486 1490 1494 1496 1499 1503 1508 1511 1515 1518 1521 1524 1527 1529 1532 1534 1536 1539 1541 1542 1544
1493 1488 1482 1480 1477 1471 1468 1469 1468 1467 1464 1462 1461 1459 1456 1455 1455 1455 1454 1450 1451 1452 1448 1440 1437 1436 1431 1426 1422 1418 1415 1413 1410 1409 1410 1410 1410 1410 1410 1411 1410 1410 1410 1411 1412 1413 1415 1416 1418 1421 1425 1429 1432 1435 1439 1443 1446 1449 1454 1458 1462 1466 1470 1474 1478 1482 1486 1489 1492 1496 1500 1504 1508 1511 1514 1516 1519 1522 1525 1528 1530 1533 1535 1537 1539 1541
1492 1487 1481 1481 1479 1471 1466 1465 1465 1464 1462 1460 1457 1454 1452 1452 1451 1450 1448 1446 1446 1447 1444 1442 1442 1438 1431 1426 1424 1421 1418 1415 1413 1412 1411 1411 1411 1411 1410 1409 1408 1407 1407 1407 1408 1409 1410 1411 1414 1417 1421 1425 1428 1431 1434 1438 1441 1446 1450 1454 1458 1462 1466 1470 1474 1478 1481 1484 1488 1493 1497 1500 1503 1507 1509 1512 1515 1518 1521 1524 1527 1529 1531 1533 1535 1537
1491 1488 1482 1484 1482 1471 1462 1462 1462 1460 1459 1457 1453 1450 1449 1448 1446 1446 1445 1444 1446 1446 1443 1440 1439 1436 1431 1428 1425 1422 1418 1417 1416 1415 1414 1413 1412 1411 1409 1407 1405 1404 1403 1402 1403 1404 1405 1407 1410 1413 1416 1419 1423 1427 1430 1434 1438 1443 1446 1449 1453 1458 1463 1467 1471 1474 1477 1481 1485 1489 1493 1496 1499 1503 1506 1509 1512 1515 1518 1521 1523 1525 1527 1529 1531 1533
1491 1489 1485 1486 1484 1471 1462 1463 1461 1459 1459 1452 1442 1438 1440 1442 1442 1443 1444 1444 1444 1445 1444 1439 1434 1433 1432 1430 1426 1422 1420 1419 1417 1417 1416 1414 1413 1411 1408 1405 1402 1399 1398 1397 1397 1399 1401 1402 1404 1407 1410 1414 1417 1422 1425 1429 1433 1437 1441 1445 1450 1455 1460 1464 1467 1471 1474 1478 1482 1486 1489 1493 1496 1499 1502 1505 1508 1512 1514 1517 1519 1520 1523 1525 1527 1529
1489 1489 1486 1486 1484 1473 1464 1461 1460 1460 1457 1445 1433 1430 1433 1436 1438 1440 1443 1446 1445 1444 1444 1440 1436 1434 1433 1431 1428 1424 1421 1419 1418 1417 1416 1414 1412 1409 1405 1402 1398 1394 1393 1392 1392 1394 1396 1398 1401 1403 1406 1409 1413 1418 1422 1427 1431 1435 1439 1443 1448 1453 1457 1460 1465 1468 1472 1476 1479 1482 1486 1489 1492 1495 1498 1502 1505 1508 1510 1512 1514 1516 1519 1522 1524 1525
1488 1487 1485 1484 1483 1476 1465 1462 1464 1460 1449 1438 1434 1433 1433 1434 1435 1437 1442 1446 1446 1445 1444 1442 1438 1436 1432 1430 1427 1423 1419 1418 1417 1415 1414 1413 1410 1407 1403 1398 1394 1391 1390 1389 1389 1389 1391 1394 1397 1400 1403 1407 1413 1418 1422 1426 1430 1435 1438 1442 1446 1451 1454 1458 1462 1466 1469 1473 1476 1479 1483 1485 1489 1492 1495 1498 1501 1504 1506 1508 1510 1513 1516 1518 1520 1522
1485 1484 1483 1481 1482 1479 1470 1463 1460 1451 1440 1436 1437 1436 1435 1436 1436 1436 1440 1445 1446 1446 1447 1444 1440 1436 1432 1428 1424 1419 1417 1416 1414 1413 1413 1410 1408 1405 1401 1396 1392 1389 1387 1387 1386 1387 1388 1391 1394 1398 1402 1406 1411 1416 1420 1424 1429 1433 1436 1440 1445 1449 1452 1456 1460 1463 1467 1470 1473 1476 1479 1482 1485 1488 1491 1495 1497 1499 1502 1504 1507 1509 1512 1514 1516 1518
1481 1481 1481 1481 1480 1477 1470 1458 1449 1444 1441 1440 1440 1440 1440 1441 1438 1436 1439 1445 1447 1447 1448 1446 1441 1435 1431 1425 1420 1416 1413 1411 1410 1410 1410 1408 1406 1403 1400 1395 1391 1387 1385 1385 1385 1386 1388 1391 1394 1397 1402 1406 1410 1413 1417 1422 1427 1430 1434 1439 1442 1446 1450 1454 1457 1460 1463 1466 1469 1472 1475 1478 1482 1485 1488 1491 1493 1495 1498 1501 1503 1506 1508 1510 1512 1514
1477 1477 1479 1481 1478 1474 1469 1460 1450 1448 1447 1443 1441 1442 1442 1442 1440 1437 1437 1442 1446 1447 1447 1445 1441 1436 1432 1426 1419 1413 1409 1410 1411 1410 1409 1408 1405 1401 1398 1394 1390 1386 1383 1383 1384 1385 1387 1390 1393 1397 1401 1405 1409 1413 1416 1421 1424 1428 1432 1436 1440 1444 1448 1451 1454 1457 1460 1463 1467 1470 1473 1476 1479 1482 1484 1487 1489 1492 1495 1497 1500 1503 1505 1507 1509 1511
1474 1474 1478 1482 1479 1474 1471 1462 1451 1447 1446 1443 1442 1443 1441 1440 1441 1439 1438 1442 1447 1447 1446 1445 1441 1437 1433 1427 1419 1411 1409 1412 1414 1412 1410 1408 1404 1401 1397 1392 1389 1386 1383 1382 1383 1385 1386 1389 1392 1396 1400 1404 1408 1412 1416 1420 1423 1427 1431 1434 1438 1442 1445 1448 1451 1454 1457 1461 1464 1467 1470 1473 1476 1478 1481 1483 1486 1489 1492 1494 1497 1499 1501 1503 1505 1507
1473 1476 1479 1483 1481 1475 1469 1459 1447 1442 1443 1444 1443 1441 1440 1440 1441 1442 1442 1444 1447 1447 1446 1445 1442 1439 1435 1429 1422 1416 1416 1419 1418 1415 1412 1409 1404 1401 1397 1393 1389 1386 1384 1383 1383 1385 1387 1389 1391 1394 1398 1402 1406 1410 1415 1419 1422 1426 1429 1432 1436 1439 1442 1444 1447 1451 1455 1459 1462 1465 1468 1470 1473 1475 1478 1480 1483 1486 1488 1491 1493 1496 1497 1499 1502 1504
1472 1475 1479 1480 1478 1474 1468 1458 1448 1442 1443 1444 1443 1441 1440 1440 1441 1442 1442 1445 1447 1447 1446 1445 1443 1440 1437 1432 1427 1424 1424 1424 1421 1417 1413 1408 1403 1401 1398 1394 1390 1387 1385 1384 1384 1386 1388 1389 1391 1394 1397 1400 1404 1409 1413 1416 1420 1423 1426 1430 1433 1436 1438 1442 1446 1450 1453 1456 1459 1462 1465 1467 1470 1473 1475 1478 1481 1483 1485 1488 1490 1492 1494 1496 1498 1500
1470 1473 1476 1477 1475 1470 1464 1456 1448 1444 1444 1444 1443 1441 1440 1440 1441 1443 1444 1446 1447 1446 1446 1446 1443 1441 1438 1435 1432 1429 1426 1423 1421 1417 1411 1406 1404 1402 1398 1395 1391 1389 1388 1387 1386 1387 1389 1390 1392 1395 1397 1400 1404 1407 1411 1414 1417 1421 1424 1427 1429 1432 1436 1440 1444 1448 1451 1454 1457 1460 1462 1465 1467 1470 1473 1475 1477 1480 1482 1484 1487 1489 1491 1493 1495 1496
1466 1467 1470 1472 1471 1467 1460 1454 1451 1448 1447 1445 1443 1442 1443 1445 1447 1447 1447 1447 1446 1445 1446 1445 1442 1441 1439 1435 1433 1431 1427 1424 1420 1414 1409 1406 1405 1402 1400 1396 1393 1391 1390 1390 1389 1390 1390 1391 1393 1395 1397 1400 1403 1406 1409 1413 1416 1419 1422 1424 1426 1431 1435 1439 1442 1446 1449 1452 1455 1458 1460 1463 1465 1468 1470 1472 1474 1477 1479 1481 1484 1485 1487 1489 1491 1493
1466 1467 1467 1467 1465 1462 1456 1452 1453 1453 1451 1448 1447 1448 1451 1452 1451 1450 1449 1447 1445 1445 1445 1444 1442 1441 1439 1436 1434 1431 1427 1423 1417 1411 1409 1408 1406 1403 1401 1399 1396 1394 1393 1393 1392 1392 1393 1393 1394 1395 1397 1400 1402 1405 1408 1411 1414 1417 1419 1422 1425 1430 1434 1437 1441 1444 1447 1450 1453 1456 1458 1461 1463 1465 1468 1469 1472 1474 1476 1478 1480 1482 1484 1486 1488 1490
1470 1470 1469 1467 1464 1460 1455 1454 1454 1455 1454 1452 1451 1451 1453 1453 1453 1452 1450 1447 1445 1444 1445 1443 1441 1440 1438 1437 1435 1432 1427 1423 1418 1414 1412 1410 1407 1405 1404 1402 1400 1398 1397 1396 1395 1395 1395 1395 1396 1397 1398 1400 1402 1405 1408 1411 1414 1416 1418 1421 1425 1429 1432 1435 1439 1442 1445 1448 1450 1453 1456 1459 1461 1463 1465 1467 1469 1471 1473 1475 1477 1478 1481 1482 1484 1486
1471 1469 1467 1466 1464 1460 1457 1455 1455 1454 1454 1454 1453 1452 1453 1453 1452 1451 1449 1447 1445 1445 1444 1443 1441 1440 1438 1437 1435 1432 1429 1425 1420 1417 1414 1412 1409 1408 1406 1405 1403 1402 1400 1399 1398 1398 1398 1398 1398 1398 1399 1401 1403 1406 1409 1412 1415 1417 1419 1422 1425 1428 1431 1434 1437 1440 1443 1446 1448 1451 1454 1456 1458 1460 1462 1464 1466 1468 1470 1472 1473 1475 1477 1479 1480 1482
1471 1467 1466 1466 1464 1460 1456 1455 1455 1455 1454 1454 1453 1452 1452 1452 1451 1450 1449 1446 1445 1444 1443 1442 1441 1440 1438 1437 1435 1433 1430 1426 1422 1419 1416 1414 1412 1410 1408 1407 1406 1405 1404 1403 1402 1402 1401 1400 1400 1401 1401 1403 1405 1407 1410 1412 1415 1418 1420 1422 1425 1427 1430 1433 1435 1438 1441 1444 1447 1449 1451 1453 1455 1457 1459 1461 1463 1465 1467 1468 1470 1471 1473 1475 1477 1478
1470 1466 1466 1466 1464 1459 1456 1456 1456 1455 1453 1453 1453 1453 1452 1451 1451 1450 1448 1446 1444 1443 1442 1442 1442 1441 1438 1437 1435 1433 1430 1427 1424 1421 1418 1416 1415 1413 1411 1410 1409 1408 1407 1406 1405 1405 1405 1404 1404 1404 1405 1406 1407 1409 1411 1413 1415 1418 1420 1422 1425 1427 1429 1431 1434 1436 1439 1442 1444 1446 1448 1450 1452 1454 1456 1458 1460 1461 1463 1464 1466 1467 1469 1470 1473 1475
1470 1467 1466 1466 1464 1460 1457 1456 1456 1454 1453 1452 1453 1452 1451 1450 1449 1448 1446 1445 1443 1443 1442 1442 1442 1441 1439 1438 1436 1433 1430 1427 1425 1424 1422 1420 1418 1416 1414 1412 1411 1410 1409 1409 1409 1409 1409 1409 1409 1408 1408 1409 1410 1411 1413 1414 1416 1418 1419 1422 1424 1426 1428 1430 1432 1434 1437 1439 1441 1444 1446 1448 1450 1452 1453 1455 1456 1458 1459 1461 1462 1463 1465 1467 1469 1471
1470 1469 1467 1466 1464 1462 1459 1459 1459 1459 1456 1453 1452 1451 1451 1450 1448 1446 1443 1442 1442 1442 1442 1441 1441 1441 1440 1439 1437 1435 1431 1427 1425 1425 1424 1423 1421 1420 1418 1415 1414 1412 1412 1411 1412 1412 1413 1413 1412 1412 1412 1412 1413 1414 1415 1416 1417 1419 1420 1422 1424 1426 1428 1430 1431 1433 1435 1437 1439 1441 1443 1445 1447 1448 1450 1451 1453 1454 1456 1457 1458 1460 1462 1464 1466 1468
1473 1471 1469 1467 1466 1464 1462 1460 1461 1460 1457 1452 1450 1450 1449 1448 1446 1444 1441 1439 1440 1441 1442 1442 1441 1441 1441 1440 1439 1437 1434 1430 1427 1425 1425 1424 1423 1422 1421 1419 1416 1415 1415 1415 1415 1415 1416 1416 1416 1416 1415 1415 1415 1416 1417 1418 1419 1420 1421 1422 1424 1426 1428 1429 1431 1433 1434 1436 1438 1439 1441 1442 1444 1445 1447 1448 1450 1451 1452 1454 1455 1457 1459 1461 1463 1465